Flag for Trinidad and Tobago Weather past 2 weeks in Port of Spain, Trinidad and Tobago

Now
79 °F

Passing clouds.


Feels Like: 82 °F
Forecast: 79 / 85 °F
Wind: 8 mph from East

Location: Piarco International Airport - Trinidad


UV Index: 7 (High)

Visibility: N/A


Pressure: 29.98 "Hg

Humidity: 79%

Dew point: 72 °F

Location of Port of SpainLocation

Historic Weather in Port of Spain

°F

Port of Spain temperature yesterday

Maximum temperature yesterday: 84 °F (at 4:00 PM)
Minimum temperature yesterday: 75 °F (at 4:00 AM)
Average temperature yesterday: 79 °F

Past Weeks' High & Low Weather Summary

 TemperatureHumidityPressure
High93 °F (Apr 13, 2:00 PM)100% (Apr 5, 7:00 PM)30.04 "Hg (Apr 5, 7:00 PM)
Low72 °F (Apr 13, 3:00 AM)38% (Apr 12, 3:00 PM)29.80 "Hg (Apr 15, 3:00 PM)
Average81 °F73%29.94 "Hg
* Reported Apr 4 10:00 PM — Apr 19 10:00 PM, Port of Spain, Weather by CustomWeather, © 2014

Note: Actual official high and low records may vary slightly from our data, if they occured in-between our weather recording intervals... More about our weather records

Advertising

Historic Weather Conditions — Data for Previous 24 hours

 ConditionsComfort  
Time TempWeatherWind HumidityBarometerVisibility
10:00 PM
Apr 19
79 °FPartly cloudy.9 mph84%29.95 "HgN/A
9:00 PM79 °FPassing clouds.12 mph79%29.95 "HgN/A
8:00 PM81 °FPassing clouds.10 mph79%29.92 "HgN/A
7:00 PM81 °FPassing clouds.13 mph79%29.92 "HgN/A
6:00 PM82 °FBroken clouds.17 mph70%29.89 "HgN/A
5:00 PM84 °FBroken clouds.17 mph66%29.89 "HgN/A
4:00 PM88 °FBroken clouds.18 mph59%29.89 "HgN/A
3:00 PM88 °FScattered clouds.16 mph62%29.89 "HgN/A
2:00 PM90 °FScattered clouds.18 mph55%29.92 "HgN/A
1:00 PM90 °FScattered clouds.16 mph55%29.95 "HgN/A
12:00 PM88 °FBroken clouds.16 mph55%29.95 "HgN/A
11:00 AM90 °FBroken clouds.15 mph52%29.98 "HgN/A
10:00 AM88 °FBroken clouds.17 mph55%29.98 "HgN/A
9:00 AM86 °FBroken clouds.14 mph66%29.98 "HgN/A
8:00 AM84 °FPartly sunny.12 mph70%29.98 "HgN/A
7:00 AM79 °FPartly sunny.9 mph79%29.95 "HgN/A
6:00 AM77 °FBroken clouds.7 mph83%29.95 "HgN/A
5:00 AM77 °FPassing clouds.9 mph83%29.92 "HgN/A
4:00 AM77 °FPassing clouds.No wind83%29.92 "HgN/A
3:00 AM77 °FPassing clouds.6 mph83%29.89 "HgN/A
2:00 AM77 °FPartly cloudy.6 mph89%29.92 "HgN/A
1:00 AM79 °FSprinkles. Partly cloudy.7 mph84%29.92 "HgN/A
12:00 AM77 °FPassing clouds.6 mph89%29.92 "HgN/A
11:00 PM
Apr 18
77 °FSprinkles. Partly cloudy.12 mph89%29.95 "HgN/A
Weather by CustomWeather, © 2014

See weather overview